Date,TemperatureHighF,TemperatureAvgF,TemperatureLowF,DewpointHighF,DewpointAvgF,DewpointLowF,HumidityHigh,HumidityAvg,HumidityLow,PressureMaxIn,PressureMinIn,WindSpeedMaxMPH,WindSpeedAvgMPH,GustSpeedMaxMPH,PrecipitationSumIn
2013-1-8,57.2,52.9,49.5,32.0,26.4,22.0,42,36,28,30.05,29.99,13,2,0,0.35
2013-1-9,53.2,47.4,33.8,34.0,26.7,22.0,98,47,30,30.00,29.79,19,6,0,0.00
2013-1-10,33.4,25.5,20.8,33.0,24.3,19.0,100,95,92,29.93,29.79,12,3,0,0.09
2013-1-12,30.6,22.7,14.9,30.0,21.0,12.0,98,93,89,30.17,30.07,0,0,0,0.25
2013-1-13,23.1,21.9,20.4,20.0,18.2,16.0,86,85,84,30.11,30.10,3,1,0,0.10
2013-1-14,28.2,24.6,21.1,12.0,10.0,7.0,63,54,46,30.41,30.30,2,0,0,0.06
2013-1-15,45.7,42.6,38.4,22.0,18.7,16.0,47,39,31,30.32,30.21,6,0,0,0.15
2013-1-16,56.0,49.6,40.2,29.0,18.1,3.0,44,29,17,30.28,30.09,7,0,0,0.01
2013-1-17,49.2,44.7,40.7,8.0,4.4,0.0,25,19,15,30.18,30.09,25,6,0,0.00
2013-1-18,49.4,45.5,43.0,8.0,2.9,-3.0,19,17,12,30.14,30.05,18,7,0,0.00
2013-1-19,49.2,45.7,42.8,4.0,0.7,-3.0,20,15,13,30.17,30.07,17,5,0,0.00
2013-1-20,51.0,46.7,44.0,7.0,0.8,-3.0,17,15,11,30.12,30.03,18,4,0,0.00
2013-1-21,52.8,48.2,44.5,6.0,0.5,-5.0,19,14,11,30.07,30.02,17,2,0,0.00
2013-1-22,50.5,47.5,44.2,7.0,4.4,-1.0,20,17,13,30.06,29.98,24,7,0,0.00
2013-1-23,54.2,47.7,37.9,32.0,18.5,6.0,72,34,17,30.02,29.91,30,12,0,0.01
2013-1-24,50.3,43.7,37.7,47.0,42.0,29.0,100,94,70,30.08,29.93,18,6,0,0.24
2013-1-25,42.7,41.1,39.2,43.0,40.9,39.0,100,99,96,30.07,29.92,25,4,0,0.13
2013-1-26,41.5,39.6,35.3,42.0,39.6,35.0,100,100,100,29.92,29.82,14,3,0,0.45
2013-1-27,35.8,28.5,24.4,36.0,28.0,23.0,100,97,95,30.05,29.87,10,2,0,0.01
2013-1-30,54.1,45.3,38.7,32.0,28.0,25.0,64,52,37,30.21,30.14,6,2,0,0.06
2013-1-31,56.9,48.5,43.4,31.0,26.4,18.0,54,43,32,30.19,30.04,18,2,0,0.00
2013-2-1,58.9,50.6,45.5,31.0,22.1,15.0,46,33,22,30.12,29.99,8,1,0,0.00
2013-2-2,51.7,47.8,40.7,36.0,21.6,8.0,83,39,18,30.18,30.07,12,3,0,0.01
2013-2-3,48.2,40.0,38.1,35.0,23.3,-99.9,85,62,35,30.10,30.00,9,-62,0,0.01
2013-2-4,56.8,48.4,43.0,32.0,23.9,19.0,52,39,27,30.04,29.92,9,1,0,0.00
2013-2-5,54.8,44.8,34.4,40.0,26.1,17.0,100,54,26,29.95,29.83,10,2,0,0.02
2013-2-6,42.7,34.8,29.4,37.0,24.1,-13.0,100,78,9,30.12,29.86,9,2,0,0.05
2013-2-7,52.9,38.8,27.6,37.0,15.3,-7.0,100,53,12,30.05,29.76,12,1,0,0.00
2013-2-8,28.5,25.0,22.8,28.0,23.8,21.0,97,95,94,29.89,29.76,10,2,0,0.05
2013-2-9,29.0,24.1,20.8,28.0,22.7,19.0,97,94,92,30.09,29.88,12,1,0,0.10
2013-2-10,33.0,27.8,23.0,30.0,25.3,21.0,93,90,85,30.06,29.98,7,1,0,0.31
2013-2-11,37.7,32.9,23.9,22.0,17.9,8.0,92,55,42,30.20,30.03,6,2,0,0.13
2013-2-12,45.2,36.1,27.5,24.0,17.9,8.0,71,50,28,30.29,30.18,7,1,0,0.00
2013-2-13,53.4,43.7,34.9,25.0,13.9,8.0,55,30,23,30.25,30.03,7,0,0,0.00
2013-2-14,52.9,46.2,42.8,23.0,19.4,12.0,43,35,27,30.15,30.01,13,2,0,0.00
2013-2-15,53.1,46.2,40.7,22.0,17.0,9.0,46,32,22,30.22,30.10,20,2,0,0.00
2013-2-16,52.6,46.2,42.1,16.0,11.5,7.0,34,25,19,30.17,29.94,21,4,0,0.00
2013-2-17,47.6,41.2,34.6,33.0,25.7,11.0,88,56,26,29.93,29.83,12,3,0,0.00
2013-2-18,52.6,42.7,31.3,30.0,16.8,-5.0,95,39,13,29.91,29.78,12,3,0,0.00
2013-2-19,36.1,28.4,21.9,30.0,25.3,7.0,97,90,30,29.81,29.60,6,0,0,0.05
2013-2-20,21.2,20.2,19.0,19.0,18.2,17.0,92,92,91,29.69,29.60,0,0,0,0.00
2013-2-21,31.0,29.2,27.8,31.0,28.9,27.0,99,98,97,30.11,30.02,6,2,0,0.36
2013-2-22,40.1,33.3,29.9,40.0,32.7,27.0,100,98,85,30.20,30.14,6,1,0,0.04
2013-2-23,33.4,31.0,26.9,33.0,29.2,24.0,100,93,79,30.16,29.95,20,4,0,0.00
2013-2-24,36.5,33.4,27.2,36.0,19.9,-2.0,99,67,21,30.21,30.05,12,2,0,0.00
2013-2-25,48.5,38.0,31.6,24.0,9.4,-2.0,72,33,18,30.22,30.00,11,2,0,0.00
2013-2-26,48.2,37.9,26.6,36.0,24.9,2.0,86,63,21,30.16,30.00,19,3,0,0.00
2013-2-27,49.4,41.5,35.6,30.0,11.7,1.0,65,31,21,30.28,30.08,10,2,0,0.00
2013-2-28,53.7,44.3,35.0,32.0,20.7,8.0,62,40,26,30.36,30.23,7,1,0,0.00
2013-3-1,57.5,51.0,42.5,22.0,16.2,10.0,36,25,20,30.31,30.14,22,3,0,0.00
2013-3-2,60.4,53.0,47.0,33.0,20.6,17.0,58,29,22,30.16,29.97,24,4,0,0.00
2013-3-3,50.1,44.1,36.8,38.0,30.1,12.0,95,61,28,29.99,29.85,17,3,0,0.00
2013-3-4,52.8,43.5,35.3,45.0,36.7,27.0,100,80,44,30.03,29.88,22,3,0,0.00
2013-3-5,52.0,43.6,32.1,34.0,29.2,23.0,92,58,38,29.95,29.82,26,10,0,0.00
2013-3-6,38.5,34.7,30.4,36.0,32.7,25.0,100,93,66,30.02,29.86,13,3,0,0.02
2013-3-7,38.5,32.2,28.7,33.0,29.0,26.0,100,89,66,29.91,29.72,18,6,0,0.01
2013-3-8,30.7,28.6,25.9,30.0,28.0,25.0,98,97,95,29.96,29.64,16,3,0,0.16
2013-3-9,31.9,30.0,27.5,32.0,29.6,27.0,99,98,97,30.29,29.95,0,0,0,0.15
2013-3-10,48.8,44.9,41.0,49.0,40.4,0.0,100,91,16,30.30,30.19,6,1,0,0.46
2013-3-11,60.1,52.8,45.0,45.0,11.6,-18.0,65,22,6,30.18,29.93,11,2,0,0.00
2013-3-12,62.2,55.9,47.9,22.0,11.7,0.0,23,17,11,30.04,29.90,14,2,0,0.00
2013-3-13,68.3,60.9,54.0,24.0,17.4,13.0,22,19,14,30.06,29.95,12,2,0,0.00
2013-3-14,72.5,62.5,54.4,45.0,22.5,10.0,47,23,13,29.98,29.89,14,3,0,0.00
2013-3-15,66.1,47.9,45.5,51.0,19.0,-99.9,96,48,19,29.94,29.82,12,-113,0,0.00
2013-3-16,53.5,46.2,40.5,45.0,41.4,34.0,100,85,56,29.96,29.82,17,4,0,0.00
2013-3-17,50.1,42.3,35.9,44.0,34.6,29.0,99,76,46,30.03,29.87,13,4,0,0.00
2013-3-18,55.3,44.4,36.9,36.0,27.9,11.0,92,56,25,30.02,29.92,16,3,0,0.00
2013-3-19,56.0,44.5,37.9,34.0,29.3,19.0,79,57,28,30.07,29.91,16,3,0,0.00
2013-3-20,49.5,40.2,38.2,42.0,28.0,-99.9,96,76,67,30.04,29.90,17,-70,0,0.00
2013-3-21,43.1,39.2,36.7,43.0,39.2,37.0,100,100,97,29.93,29.83,14,5,0,0.01
2013-3-22,42.0,30.3,31.3,42.0,14.7,-99.9,100,82,77,30.00,29.84,12,-142,0,0.00
2013-3-23,56.6,41.7,29.6,32.0,17.4,-3.0,97,43,11,30.05,29.95,13,3,0,0.00
2013-3-24,57.2,46.8,37.9,32.0,16.7,-4.0,51,31,14,30.03,29.87,8,2,0,0.00
2013-3-25,61.0,52.4,46.0,32.0,16.0,-10.0,40,25,7,29.89,29.80,11,1,0,0.00
2013-3-26,56.9,47.9,41.5,35.0,27.5,9.0,74,48,20,29.85,29.77,12,2,0,0.00
2013-3-27,53.8,45.1,37.7,41.0,37.9,33.0,96,77,58,29.92,29.77,14,4,0,0.00
2013-3-28,56.9,46.4,38.9,42.0,37.1,31.0,100,73,46,30.03,29.86,10,2,0,0.00
2013-3-29,63.0,52.5,44.2,36.0,29.4,22.0,71,43,26,29.99,29.92,14,4,0,0.01
2013-3-30,61.4,53.0,45.4,38.0,27.6,11.0,75,40,20,29.95,29.87,18,6,0,0.00
2013-3-31,46.9,42.7,38.5,45.0,40.6,38.0,100,93,72,29.98,29.85,11,2,0,0.34
2013-4-1,40.8,38.0,34.3,41.0,38.0,34.0,100,100,100,30.06,29.94,13,3,0,0.06
2013-4-2,49.7,41.9,38.1,50.0,41.5,38.0,100,98,84,30.07,29.98,12,3,0,0.01
2013-4-3,66.7,55.0,38.4,42.0,31.6,21.0,100,45,22,30.07,29.87,13,3,0,0.00
2013-4-4,54.7,49.4,44.7,46.0,41.2,25.0,100,75,34,29.98,29.82,16,2,0,0.00
2013-4-5,44.5,41.7,40.1,45.0,41.7,40.0,100,100,100,30.04,29.89,18,4,0,0.05
2013-4-6,41.4,39.3,37.9,41.0,39.4,38.0,100,100,100,30.09,29.98,21,5,0,0.01
2013-4-7,44.7,40.4,37.2,45.0,40.4,37.0,100,100,100,30.04,29.75,17,6,0,0.01
2013-4-8,41.7,31.7,25.4,42.0,31.5,25.0,100,99,97,29.86,29.58,21,6,0,0.00
2013-4-9,39.2,35.7,28.2,39.0,35.7,28.0,100,100,98,30.11,29.89,7,2,0,0.52
2013-4-10,56.2,50.1,36.2,39.0,30.3,6.0,100,48,22,30.11,29.97,8,2,0,0.00
2013-4-11,56.9,49.0,43.1,44.0,38.6,30.0,93,68,50,29.95,29.69,11,3,0,0.00
2013-4-12,64.3,52.1,42.2,48.0,41.9,34.0,95,70,43,29.80,29.67,10,2,0,0.00
2013-4-13,59.3,53.0,47.4,44.0,37.7,31.0,74,57,34,29.73,29.64,13,5,0,0.00
2013-4-14,50.5,44.1,39.7,45.0,38.1,28.0,100,81,56,29.73,29.61,18,6,0,0.00
2013-4-15,41.7,36.5,28.4,42.0,35.6,26.0,100,96,74,29.78,29.64,14,4,0,0.01
2013-4-16,35.0,25.6,22.0,31.0,24.1,20.0,98,93,71,29.97,29.75,18,4,0,0.00
2013-4-17,42.7,37.5,33.4,21.0,18.7,17.0,52,47,35,30.20,30.11,3,0,0,0.00
2013-4-18,54.7,46.3,32.4,21.0,16.9,9.0,52,33,19,30.22,30.12,11,2,0,0.00
2013-4-19,60.5,50.7,40.7,31.0,20.3,3.0,51,31,16,30.16,29.92,5,1,0,0.00
2013-4-20,64.6,53.2,43.4,44.0,34.4,24.0,62,50,23,29.99,29.87,12,3,0,0.00
2013-4-21,67.5,57.8,48.0,40.0,26.8,4.0,60,33,9,29.94,29.83,8,2,0,0.00
2013-4-22,66.2,56.7,48.6,38.0,31.6,21.0,56,39,28,29.85,29.73,12,4,0,0.00
2013-4-23,64.4,55.6,46.6,40.0,24.5,14.0,70,35,15,29.85,29.70,16,3,0,0.00
2013-4-24,66.2,55.8,48.8,39.0,28.0,18.0,68,36,17,29.77,29.65,18,3,0,0.00
2013-4-25,59.0,48.9,41.5,46.0,41.2,38.0,91,75,60,30.01,29.70,11,2,0,0.00
2013-4-26,64.8,52.9,42.0,49.0,43.3,40.0,94,72,49,30.10,29.97,9,2,0,0.00
2013-4-27,69.7,58.5,48.0,46.0,39.2,30.0,77,50,31,30.11,29.93,10,2,0,0.00
2013-4-28,69.5,59.8,50.4,46.0,39.6,31.0,68,49,29,29.95,29.79,9,2,0,0.00
2013-4-29,69.7,60.5,51.3,45.0,36.6,27.0,62,42,25,29.79,29.62,8,2,0,0.00
2013-4-30,65.4,56.6,48.6,46.0,40.7,33.0,70,56,46,29.73,29.58,11,3,0,0.00
2013-5-1,68.3,57.2,44.4,34.0,12.2,-10.0,60,23,6,30.02,29.71,19,3,0,0.00
2013-5-2,65.1,56.4,48.5,5.0,-3.9,-12.0,12,9,6,30.11,29.99,22,4,0,0.00
2013-5-3,73.0,61.1,52.3,26.0,11.2,-8.0,29,15,7,30.04,29.69,10,1,0,0.00
2013-5-4,68.5,58.5,48.3,39.0,30.2,13.0,60,36,20,29.68,29.50,17,3,0,0.00
2013-5-5,50.4,41.2,36.9,40.0,32.2,7.0,100,77,18,29.80,29.51,30,15,0,0.00
2013-5-6,43.8,39.5,36.7,43.0,38.9,35.0,100,97,87,29.92,29.74,32,10,0,0.08
2013-5-7,41.7,38.8,36.4,42.0,38.7,35.0,100,99,90,29.97,29.86,14,2,0,0.30
2013-5-8,46.1,41.6,39.2,46.0,41.6,39.0,100,100,100,30.02,29.93,7,2,0,0.00
2013-5-10,65.1,58.3,54.0,53.0,47.9,42.0,80,69,61,30.05,29.98,8,2,0,0.00
2013-5-11,75.8,64.1,52.8,51.0,42.9,31.0,73,49,22,30.05,29.92,7,1,0,0.00
2013-5-12,77.0,65.8,56.3,53.0,48.5,42.0,86,56,34,30.00,29.89,7,2,0,0.00
2013-5-13,75.6,68.7,58.1,49.0,38.6,30.0,63,34,25,29.91,29.76,11,2,0,0.00
2013-5-14,69.0,62.6,53.5,44.0,33.2,6.0,58,36,9,29.80,29.72,14,3,0,0.00
2013-5-15,67.3,57.5,49.5,47.0,40.6,35.0,80,55,35,29.86,29.78,14,4,0,0.00
2013-5-16,55.4,47.7,42.5,43.0,39.5,35.0,99,74,62,29.86,29.75,14,3,0,0.00
2013-5-17,55.1,46.1,39.2,50.0,40.9,36.0,100,84,61,29.96,29.76,11,4,0,0.00
2013-5-18,58.4,48.0,38.5,36.0,30.9,24.0,87,54,35,30.02,29.89,19,4,0,0.00
2013-5-19,58.9,50.7,42.1,40.0,35.7,27.0,87,58,41,29.98,29.89,17,4,0,0.00
2013-5-20,72.0,60.1,46.3,39.0,29.3,20.0,70,34,16,29.95,29.81,17,2,0,0.00
2013-5-21,69.2,60.7,49.2,40.0,32.9,22.0,64,37,25,29.83,29.66,11,2,0,0.00
2013-5-22,51.9,43.1,34.3,37.0,31.2,21.0,92,64,47,29.82,29.64,22,4,0,0.00
2013-5-23,52.0,42.3,34.1,27.0,20.7,14.0,62,43,29,29.89,29.73,16,3,0,0.00
2013-5-24,61.8,48.1,35.8,38.0,30.3,24.0,70,51,38,29.89,29.81,13,1,0,0.00
2013-5-25,60.4,50.4,41.4,32.0,28.5,24.0,64,45,26,29.87,29.77,8,1,0,0.00
2013-5-26,55.4,47.1,39.2,39.0,36.6,31.0,92,68,50,29.97,29.83,13,3,0,0.00
2013-5-27,56.6,47.6,41.4,44.0,39.8,33.0,100,77,53,29.93,29.83,12,3,0,0.00
2013-5-28,47.3,44.5,41.8,47.0,44.6,42.0,100,100,99,29.83,29.73,19,6,0,0.36
2013-5-29,57.1,48.9,44.1,54.0,45.4,40.0,100,89,64,29.83,29.71,14,5,0,0.00
2013-5-30,63.6,52.5,41.4,46.0,41.3,37.0,97,68,46,29.85,29.74,14,4,0,0.00
2013-5-31,69.8,58.5,46.6,44.0,39.0,27.0,71,50,32,29.88,29.77,14,2,0,0.00
2013-6-1,80.7,69.5,56.3,41.0,31.4,21.0,54,27,12,29.83,29.63,8,1,0,0.00
2013-6-2,79.0,70.7,62.4,47.0,33.9,16.0,48,27,15,29.63,29.50,11,2,0,0.00
2013-6-3,75.1,65.9,56.9,49.0,42.4,34.0,65,45,23,29.66,29.50,10,2,0,0.00
2013-6-4,74.1,63.5,53.8,52.0,47.3,40.0,72,56,43,29.75,29.59,7,1,0,0.00
2013-6-5,80.8,66.4,53.4,55.0,47.7,37.0,83,55,22,29.79,29.71,8,1,0,0.00
2013-6-6,79.0,67.8,56.6,56.0,50.8,43.0,74,56,30,29.73,29.67,7,1,0,0.00
2013-6-7,84.1,71.1,59.0,57.0,49.2,36.0,70,49,18,29.69,29.58,7,1,0,0.00
2013-6-8,89.9,77.1,66.4,53.0,39.1,18.0,56,29,11,29.62,29.54,13,2,0,0.00
2013-6-9,76.0,70.1,58.9,52.0,28.2,4.0,57,25,9,29.67,29.53,21,4,0,0.00
2013-6-10,66.1,58.7,51.4,49.0,33.2,10.0,71,42,14,29.82,29.61,17,3,0,0.00
2013-6-11,78.5,66.6,53.8,43.0,33.3,26.0,49,30,17,29.83,29.71,6,1,0,0.00
2013-6-12,75.6,68.1,56.0,50.0,37.6,27.0,58,34,22,29.78,29.68,8,1,0,0.00
2013-6-13,63.2,56.5,51.7,39.0,27.3,10.0,61,35,15,29.92,29.76,14,4,0,0.00
2013-6-14,70.5,59.9,47.9,41.0,32.8,18.0,55,37,19,29.86,29.71,6,1,0,0.00
2013-6-15,71.7,61.9,54.0,36.0,29.2,19.0,50,31,18,29.81,29.68,7,2,0,0.00
2013-6-16,68.8,58.8,50.7,40.0,32.5,23.0,66,39,22,29.93,29.78,10,2,0,0.00
2013-6-17,68.3,58.2,48.9,41.0,36.4,32.0,63,46,26,29.93,29.82,14,3,0,0.00
2013-6-18,64.0,54.9,46.7,43.0,39.0,32.0,81,57,35,29.83,29.73,11,3,0,0.00
2013-6-19,55.4,46.4,35.6,42.0,33.5,25.0,94,64,32,29.91,29.73,22,3,0,0.00
2013-6-20,61.0,52.1,40.4,36.0,30.2,23.0,75,46,24,29.85,29.79,13,3,0,0.00
2013-6-21,64.0,55.2,45.4,39.0,34.3,27.0,72,47,31,29.85,29.73,14,3,0,0.00
2013-6-22,68.5,59.6,47.6,38.0,33.6,28.0,67,39,27,29.81,29.72,10,2,0,0.00
2013-6-23,58.2,55.5,52.8,39.0,35.2,31.0,58,47,36,29.72,29.66,8,1,0,0.00
2013-6-24,56.8,53.2,48.3,52.0,49.7,44.0,100,88,77,29.82,29.72,18,3,0,0.00
2013-6-25,71.0,59.1,48.3,53.0,50.8,47.0,98,76,51,29.86,29.80,11,4,0,0.00
2013-6-26,73.6,63.7,54.4,58.0,54.7,53.0,99,74,50,29.90,29.78,13,2,0,0.00
2013-6-27,82.7,69.2,58.2,61.0,55.9,50.0,92,65,36,29.91,29.83,7,1,0,0.00
2013-6-28,81.8,71.6,63.3,59.0,56.1,50.0,77,59,44,29.87,29.77,7,1,0,0.00
2013-6-29,83.9,73.9,64.0,53.0,49.7,46.0,63,44,28,29.79,29.68,14,2,0,0.00
2013-6-30,88.9,77.3,69.2,56.0,48.9,35.0,50,38,26,29.70,29.60,8,1,0,0.00
2013-7-1,90.2,77.4,68.5,56.0,49.4,44.0,53,39,20,29.71,29.59,7,1,0,0.00
2013-7-2,87.6,77.4,66.1,52.0,47.2,43.0,61,36,25,29.77,29.66,10,1,0,0.00
2013-7-3,85.6,74.4,66.5,51.0,46.6,42.0,48,38,26,29.75,29.62,10,1,0,0.00
2013-7-4,85.2,76.1,67.5,54.0,49.1,41.0,55,39,30,29.64,29.54,9,1,0,0.00
2013-7-5,84.3,74.8,68.5,54.0,49.2,30.0,60,42,23,29.59,29.52,8,1,0,0.00
2013-7-6,84.7,73.4,66.2,44.0,37.8,25.0,41,28,16,29.60,29.51,10,1,0,0.00
2013-7-7,82.9,73.2,65.1,42.0,35.9,30.0,43,27,16,29.69,29.55,8,1,0,0.00
2013-7-8,82.9,73.9,66.9,38.0,31.6,24.0,32,22,14,29.80,29.65,9,1,0,0.00
2013-7-9,83.9,74.3,64.3,40.0,31.2,22.0,32,21,13,29.88,29.78,8,1,0,0.00
2013-7-10,80.3,72.4,65.6,44.0,36.8,31.0,43,28,20,29.84,29.74,5,0,0,0.00
2013-7-11,74.6,68.0,62.2,47.0,41.7,31.0,51,39,27,29.78,29.67,13,1,0,0.00
2013-7-12,78.6,68.1,58.4,42.0,35.2,26.0,45,31,17,29.77,29.70,12,2,0,0.00
2013-7-13,80.8,71.3,61.8,41.0,36.6,29.0,45,29,19,29.79,29.71,7,1,0,0.00
2013-7-14,78.6,69.3,58.9,36.0,31.0,19.0,35,25,15,29.82,29.74,10,1,0,0.00
2013-7-15,80.1,69.7,59.9,42.0,31.9,20.0,37,25,19,29.75,29.61,8,2,0,0.00
2013-7-16,76.7,65.8,56.2,38.0,27.7,16.0,42,25,15,29.82,29.64,7,1,0,0.00
2013-7-17,76.5,65.3,54.8,46.0,34.0,21.0,63,35,13,29.90,29.79,7,1,0,0.00
2013-7-18,77.0,67.4,58.7,48.0,39.3,20.0,46,36,20,29.88,29.78,12,1,0,0.00
2013-7-19,85.4,73.0,60.8,47.0,41.3,31.0,51,33,17,29.77,29.64,9,1,0,0.00
2013-7-20,86.6,74.8,65.6,49.0,41.1,35.0,39,30,19,29.67,29.58,12,2,0,0.00
2013-7-21,83.1,72.2,64.1,56.0,46.7,37.0,72,41,28,29.72,29.57,8,1,0,0.02
2013-7-22,76.5,68.2,61.1,56.0,52.5,46.0,70,58,40,29.80,29.66,6,1,0,0.01
2013-7-23,77.2,67.9,59.5,54.0,50.4,45.0,72,55,37,29.84,29.77,8,1,0,0.00
2013-7-24,77.2,67.9,58.1,53.0,49.6,43.0,80,54,38,29.83,29.77,10,2,0,0.00
2013-7-25,81.2,70.8,60.5,50.0,47.3,44.0,62,44,30,29.86,29.75,10,1,0,0.00
2013-7-26,76.9,69.8,61.6,57.0,52.6,47.0,73,55,42,29.91,29.81,6,1,0,0.01
2013-7-27,81.0,70.4,61.4,54.0,49.4,46.0,67,49,33,29.84,29.68,9,1,0,0.00
2013-7-28,79.4,69.9,60.5,51.0,44.0,35.0,65,42,26,29.71,29.63,11,2,0,0.00
2013-7-29,79.7,69.5,59.9,48.0,39.9,22.0,64,39,12,29.81,29.65,7,2,0,0.00
2013-7-30,80.1,68.8,60.1,50.0,44.6,39.0,65,44,25,29.89,29.78,14,2,0,0.00
2013-7-31,79.2,67.7,57.6,47.0,32.2,9.0,61,34,9,29.91,29.80,12,2,0,0.00
2013-8-1,69.2,60.3,52.2,46.0,34.5,28.0,71,40,24,29.89,29.78,12,2,0,0.00
2013-8-2,70.3,61.5,50.5,36.0,25.4,10.0,57,28,13,29.84,29.76,11,2,0,0.00
2013-8-3,76.9,66.2,55.0,30.0,23.8,15.0,37,21,10,29.83,29.76,10,1,0,0.00
2013-8-4,81.0,69.4,59.5,37.0,31.0,23.0,39,25,15,29.81,29.73,7,1,0,0.00
2013-8-5,78.8,67.6,57.2,38.0,31.0,15.0,40,26,13,29.83,29.73,6,1,0,0.00
2013-8-6,79.2,66.9,58.4,42.0,38.3,31.0,51,36,19,29.83,29.73,12,2,0,0.00
2013-8-7,69.8,60.3,54.1,46.0,39.1,26.0,71,47,28,29.90,29.79,11,2,0,0.00
2013-8-8,71.8,58.4,48.3,45.0,41.1,35.0,87,55,28,29.85,29.75,7,1,0,0.00
2013-8-9,72.4,60.2,50.0,46.0,41.3,36.0,73,51,31,29.82,29.72,11,1,0,0.00
2013-8-10,69.0,59.4,49.2,44.0,40.8,34.0,80,52,31,29.89,29.77,11,1,0,0.00
2013-8-11,71.5,60.7,51.0,47.0,43.2,39.0,76,54,38,29.87,29.80,7,1,0,0.00
2013-8-12,75.8,63.8,53.8,47.0,43.1,36.0,71,49,26,29.85,29.76,8,1,0,0.00
2013-8-13,79.4,67.5,56.9,46.0,42.4,35.0,65,42,25,29.84,29.77,7,1,0,0.00
2013-8-14,80.3,68.8,57.5,44.0,37.3,29.0,60,34,16,29.83,29.74,10,1,0,0.00
2013-8-15,85.0,72.2,60.2,41.0,31.4,6.0,47,25,8,29.79,29.71,11,2,0,0.00
2013-8-16,82.5,72.6,63.0,50.0,39.8,21.0,45,31,16,29.80,29.72,7,1,0,0.00
2013-8-17,81.8,70.8,61.9,50.0,43.2,35.0,54,38,25,29.82,29.70,5,1,0,0.00
2013-8-18,83.1,72.4,61.9,49.0,37.8,-8.0,57,32,4,29.75,29.66,13,3,0,0.00
2013-8-19,81.6,71.9,65.7,54.0,49.3,41.0,61,46,34,29.75,29.65,25,6,0,0.00
2013-8-20,81.4,73.0,68.0,49.0,37.5,27.0,49,30,14,29.74,29.65,17,6,0,0.00
2013-8-21,81.8,73.6,68.5,41.0,31.0,21.0,34,21,14,29.77,29.65,14,7,0,0.00
2013-8-22,81.6,72.7,65.2,45.0,32.0,24.0,44,24,13,29.77,29.66,20,6,0,0.00
2013-8-23,80.5,69.3,60.8,46.0,32.0,20.0,55,27,11,29.71,29.61,13,2,0,0.00
2013-8-24,77.2,66.3,56.0,46.0,39.1,28.0,69,39,22,29.73,29.61,6,1,0,0.00
2013-8-25,77.4,66.7,57.5,48.0,30.4,13.0,53,27,14,29.80,29.69,10,1,0,0.00
2013-8-26,75.5,66.3,61.6,56.0,45.9,14.0,79,51,15,29.81,29.70,10,1,0,0.00
2013-8-27,74.9,65.5,56.9,57.0,54.7,52.0,84,69,49,29.73,29.65,11,2,0,0.00
2013-8-28,79.2,69.8,60.2,54.0,46.9,40.0,81,46,29,29.79,29.62,12,2,0,0.00
2013-8-29,81.2,71.8,61.9,50.0,44.0,37.0,59,38,26,29.83,29.72,8,1,0,0.00
2013-8-30,82.0,71.1,59.9,54.0,50.3,45.0,75,49,35,29.86,29.77,11,1,0,0.00
2013-8-31,79.9,69.3,63.3,54.0,48.6,44.0,61,49,34,29.84,29.74,7,1,0,0.00
2013-9-1,78.6,67.2,59.8,58.0,54.7,50.0,92,65,48,29.78,29.70,12,2,0,0.00
2013-9-2,79.7,69.5,62.1,56.0,49.1,42.0,75,50,29,29.78,29.68,10,2,0,0.00
2013-9-3,79.5,69.9,61.0,56.0,49.4,45.0,80,50,30,29.78,29.67,9,2,0,0.00
2013-9-4,82.1,72.8,64.8,49.0,44.2,41.0,56,37,24,29.83,29.72,13,2,0,0.00
2013-9-5,83.1,72.7,62.2,46.0,42.9,41.0,54,35,24,29.78,29.70,12,1,0,0.00
2013-9-6,83.7,73.2,63.8,45.0,38.7,34.0,48,29,20,29.78,29.66,8,1,0,0.00
2013-9-7,81.0,72.8,65.9,40.0,31.7,22.0,35,23,16,29.77,29.67,9,1,0,0.00
2013-9-8,79.5,69.5,61.1,46.0,34.7,23.0,48,28,20,29.75,29.64,5,1,0,0.00
2013-9-9,78.5,69.2,61.8,47.0,41.1,32.0,51,37,27,29.69,29.57,10,1,0,0.00
2013-9-10,79.0,68.5,61.0,42.0,38.9,34.0,47,35,23,29.73,29.57,10,1,0,0.00
2013-9-11,73.4,63.7,56.3,45.0,39.9,36.0,60,43,27,29.84,29.70,8,1,0,0.00
2013-9-12,75.5,63.8,55.4,44.0,37.4,27.0,63,39,25,29.83,29.74,7,1,0,0.00
2013-9-13,76.0,65.6,57.4,47.0,40.8,30.0,57,41,28,29.75,29.62,6,0,0,0.00
2013-9-14,82.0,69.4,60.1,50.0,45.7,37.0,59,45,20,29.66,29.55,6,1,0,0.00
2013-9-15,81.0,71.3,61.3,51.0,38.1,31.0,67,32,17,29.65,29.54,19,3,0,0.00
2013-9-16,78.3,70.2,63.0,44.0,31.4,25.0,50,24,15,29.71,29.59,22,6,0,0.00
2013-9-17,70.0,61.2,49.8,47.0,36.2,6.0,74,44,10,29.68,29.58,10,1,0,0.00
2013-9-18,65.2,53.2,44.4,45.0,40.6,8.0,84,64,13,29.79,29.65,7,1,0,0.00
2013-9-19,76.7,67.7,57.2,28.0,21.8,10.0,25,18,12,29.74,29.61,11,1,0,0.00
2013-9-20,74.8,66.0,52.2,42.0,29.9,21.0,53,28,15,29.67,29.56,16,3,0,0.00
2013-9-21,62.4,53.0,43.4,48.0,40.6,22.0,100,65,27,29.73,29.63,14,2,0,0.06
2013-9-22,44.0,41.0,38.2,44.0,41.0,38.0,100,100,99,29.93,29.63,16,4,0,0.07
2013-9-23,73.4,59.4,41.5,44.0,32.7,24.0,99,43,20,29.93,29.75,10,1,0,0.00
2013-9-24,71.8,62.8,54.2,44.0,30.1,20.0,67,31,18,29.81,29.67,12,2,0,0.00
2013-9-25,54.0,44.6,39.8,44.0,38.7,34.0,98,80,60,29.72,29.64,17,3,0,0.00
2013-9-26,45.4,39.1,34.4,42.0,33.7,28.0,100,82,61,29.96,29.62,12,2,0,0.00
2013-9-27,59.3,48.5,36.1,34.0,28.2,16.0,80,48,25,30.01,29.89,9,1,0,0.00
2013-9-28,67.3,58.0,50.7,27.0,18.4,14.0,33,22,15,29.99,29.90,10,1,0,0.00
2013-9-29,69.3,58.8,52.3,27.0,17.4,0.0,35,21,10,29.99,29.89,10,1,0,0.00
2013-9-30,60.2,53.5,45.4,42.0,34.1,21.0,85,49,27,29.95,29.83,14,3,0,0.00
2013-10-1,66.1,55.1,46.4,47.0,39.6,27.0,92,60,24,29.86,29.76,7,1,0,0.00
2013-10-2,59.3,52.2,46.9,47.0,42.3,39.0,85,70,48,29.84,29.71,17,2,0,0.00
2013-10-3,49.5,44.1,38.7,41.0,33.2,23.0,87,67,38,29.91,29.78,16,4,0,0.00
2013-10-4,57.8,49.7,43.2,23.0,10.3,5.0,37,21,13,30.07,29.84,21,6,0,0.00
2013-10-5,61.8,53.4,45.5,15.0,11.2,3.0,28,19,11,30.14,30.02,25,5,0,0.00
2013-10-6,68.0,60.0,54.0,11.0,7.1,2.0,17,12,8,30.04,29.89,18,3,0,0.00
2013-10-7,69.8,59.9,53.4,22.0,10.1,5.0,29,14,9,29.89,29.74,16,2,0,0.00
2013-10-8,62.2,53.9,45.5,29.0,24.8,19.0,51,34,20,29.75,29.56,10,1,0,0.00
2013-10-9,45.2,36.7,31.3,38.0,34.2,27.0,99,91,49,29.71,29.49,12,4,0,0.07
2013-10-10,47.6,39.3,31.3,41.0,34.9,31.0,100,86,65,29.95,29.73,7,2,0,0.48
2013-10-11,60.7,51.6,40.4,38.0,30.9,20.0,74,47,25,29.93,29.84,14,2,0,0.00
2013-10-12,61.0,52.0,45.1,33.0,26.1,17.0,57,38,27,29.86,29.76,10,1,0,0.00
2013-10-13,49.7,44.4,38.8,36.0,34.0,28.0,80,67,48,29.99,29.71,11,1,0,0.00
2013-10-14,59.0,50.8,41.5,33.0,25.7,20.0,72,39,27,30.05,29.89,16,2,0,0.00
2013-10-15,61.1,53.1,47.3,23.0,21.0,16.0,39,29,22,29.93,29.85,17,2,0,0.00
2013-10-16,64.1,52.8,46.3,28.0,17.3,9.0,41,25,16,30.02,29.89,13,2,0,0.00
2013-10-17,60.2,51.2,42.7,31.0,26.1,17.0,58,39,27,30.00,29.88,7,1,0,0.00
2013-10-18,66.4,58.2,47.3,25.0,16.3,11.0,38,20,13,29.96,29.85,18,2,0,0.00
2013-10-19,70.7,60.3,52.3,28.0,13.7,9.0,23,16,10,29.97,29.86,7,1,0,0.00
2013-10-20,69.3,59.5,53.5,30.0,12.9,-2.0,28,16,8,29.88,29.76,10,1,0,0.00
2013-10-21,67.2,61.4,54.1,14.0,7.9,-14.0,16,12,5,29.86,29.76,18,2,0,0.00
2013-10-22,66.9,61.0,58.1,17.0,14.1,10.0,19,16,13,29.89,29.78,14,2,0,0.00
2013-10-23,68.2,59.7,53.8,25.0,18.2,14.0,28,20,13,29.81,29.73,8,0,0,0.00
2013-10-24,66.5,57.0,50.7,29.0,23.4,14.0,43,28,15,29.96,29.75,7,1,0,0.00
2013-10-25,69.3,59.1,49.1,34.0,21.2,15.0,55,24,15,30.02,29.91,5,0,0,0.00
2013-10-26,69.7,63.1,59.2,21.0,17.9,15.0,22,18,13,29.98,29.85,8,1,0,0.00
2013-10-27,66.1,57.7,46.0,36.0,22.2,12.0,68,28,14,29.85,29.49,13,2,0,0.00
2013-10-28,45.7,37.1,33.4,36.0,31.5,19.0,100,82,42,29.80,29.50,17,4,0,0.07
2013-10-29,35.3,33.6,33.0,35.0,33.7,33.0,100,100,100,29.90,29.78,15,3,0,0.12
2013-10-30,50.5,45.3,39.1,39.0,35.2,15.0,88,69,30,30.03,29.95,2,0,0,0.00
2013-10-31,58.1,53.7,45.1,22.0,18.2,2.0,30,25,16,30.01,29.93,7,1,0,0.00
2013-11-1,62.5,55.9,49.7,22.0,18.9,13.0,30,24,17,30.03,29.91,17,4,0,0.00
2013-11-2,61.8,53.4,44.5,34.0,22.1,16.0,68,32,19,29.91,29.73,18,3,0,0.00
2013-11-3,48.0,40.7,35.9,46.0,36.6,32.0,100,86,63,29.88,29.70,14,3,0,0.00
2013-11-4,46.3,36.8,29.1,37.0,29.0,24.0,91,75,47,29.98,29.69,12,1,0,0.00
2013-11-5,50.5,45.4,38.1,21.0,6.4,1.0,49,21,14,30.14,29.92,12,3,0,0.00
2013-11-6,55.9,52.6,47.3,20.0,11.5,-1.0,28,20,13,30.18,30.07,19,6,0,0.00
2013-11-7,64.9,56.1,52.2,23.0,16.2,9.0,29,21,16,30.07,29.92,17,3,0,0.00
2013-11-8,66.4,57.9,51.1,16.0,2.0,-19.0,21,11,4,29.94,29.80,10,1,0,0.00
2013-11-9,62.9,56.3,52.0,17.0,4.4,-8.0,24,13,7,29.93,29.80,21,4,0,0.00
2013-11-10,62.4,57.2,54.0,11.0,4.2,-11.0,15,12,6,29.99,29.87,13,4,0,0.00
2013-11-11,63.5,57.4,51.7,23.0,15.0,7.0,26,19,14,30.05,29.92,19,5,0,0.00
2013-11-12,66.1,59.5,55.3,26.0,16.3,10.0,31,19,14,30.12,29.98,12,1,0,0.00
2013-11-13,65.1,56.6,49.8,33.0,21.3,13.0,39,26,18,30.04,29.89,7,0,0,0.00
2013-11-14,68.0,57.8,46.4,31.0,22.3,19.0,55,27,15,29.95,29.63,8,2,0,0.00
2013-11-15,47.3,39.8,35.2,39.0,34.9,29.0,98,83,50,29.75,29.54,10,2,0,0.00
2013-11-16,46.0,38.3,33.4,34.0,31.3,30.0,94,77,58,29.85,29.65,12,3,0,0.00
2013-11-17,52.9,44.0,31.9,35.0,31.1,28.0,94,63,41,30.01,29.82,10,1,0,0.00
2013-11-18,53.8,45.4,37.9,37.0,34.6,32.0,85,67,51,30.02,29.91,13,3,0,0.00
2013-11-19,42.4,38.7,35.5,42.0,35.9,26.0,100,90,53,29.99,29.90,14,4,0,0.00
2013-11-20,49.8,42.2,36.4,43.0,39.6,31.0,100,91,65,29.90,29.73,12,5,0,0.00
2013-11-21,42.0,40.4,35.3,42.0,40.4,35.0,100,100,99,29.79,29.68,9,2,0,0.71
2013-11-25,48.0,45.1,42.1,27.0,26.7,26.0,56,49,42,30.21,30.16,2,0,0,0.00
2013-11-26,50.1,46.9,43.2,30.0,25.4,22.0,57,44,34,30.06,29.99,19,6,0,0.00
2013-11-27,47.0,44.4,41.1,30.0,28.1,26.0,58,53,50,29.86,29.77,20,12,0,0.00
2013-11-30,53.8,45.7,39.5,33.0,27.9,26.0,62,51,37,30.19,30.05,5,0,0,0.00
2013-12-1,59.0,53.4,46.7,27.0,20.0,3.0,45,28,12,30.17,30.04,6,1,0,0.00
2013-12-2,62.4,52.9,45.5,26.0,15.6,8.0,46,24,13,30.08,29.74,8,2,0,0.00
2013-12-3,45.0,39.3,35.5,39.0,33.7,26.0,100,82,48,29.75,29.62,13,4,0,0.04
2013-12-15,58.9,55.7,53.5,15.0,13.1,11.0,21,18,16,30.11,30.06,13,3,0,0.00
2013-12-16,62.1,58.9,55.0,16.0,8.1,1.0,19,13,10,30.12,30.00,14,5,0,0.00
2013-12-17,65.6,60.1,55.7,18.0,13.4,9.0,19,16,14,30.05,29.86,14,3,0,0.00
2013-12-18,59.3,51.8,38.4,31.0,18.8,10.0,71,31,14,29.88,29.59,13,4,0,0.00
2013-12-19,35.9,35.0,34.1,33.0,32.5,32.0,94,90,85,29.58,29.58,10,8,0,0.00
2013-12-22,48.0,48.0,48.0,26.0,26.0,26.0,43,43,43,30.10,30.10,0,0,0,0.00
2013-12-23,54.4,49.5,45.8,28.0,25.8,22.0,47,40,35,30.24,30.19,4,0,0,0.00
2013-12-24,59.9,53.5,47.3,23.0,15.4,6.0,39,23,15,30.11,30.06,11,3,0,0.00
2013-12-25,54.7,50.1,45.7,22.0,3.6,-7.0,37,16,10,30.19,30.10,13,3,0,0.00
2013-12-26,56.6,52.5,46.7,-2.0,-7.4,-14.0,11,8,6,30.17,30.08,14,2,0,0.00
2013-12-27,59.6,54.5,50.4,6.0,-1.3,-14.0,13,10,6,30.11,29.95,14,1,0,0.00
2013-12-28,56.6,50.7,45.2,2.0,-3.5,-9.0,16,11,8,29.95,29.83,13,1,0,0.00
2013-12-29,58.5,50.6,43.0,8.0,-2.9,-14.0,15,11,6,30.11,29.92,14,2,0,0.00
2013-12-30,59.8,50.2,44.8,5.0,-0.2,-14.0,19,13,7,30.14,30.04,10,2,0,0.00
2013-12-31,58.2,50.9,46.6,4.0,-5.9,-12.0,17,9,7,30.11,29.99,14,3,0,0.00
2014-1-1,56.6,52.7,46.6,18.0,12.1,-2.0,27,20,12,30.06,29.99,14,4,0,0.00
2014-1-2,61.1,54.2,50.0,20.0,14.8,6.0,28,21,16,30.02,29.91,13,2,0,0.00